Terminal Aerodrome Forecast
Issued by NWS

Home | Current Version | Previous Version | Text Only | Print | Product List | Glossary On
Versions: 1 2 3 4 5 6 7 8 9 10 11 12 13 14 15 16 17 18 19 20 21 22 23 24 25 26 27 28 29 30 31 32 33 34
000
FTUS41 KGYX 272336
TAFMHT
TAF
KMHT 272336Z 2800/2824 21014G24KT P6SM FEW050 BKN250
      TEMPO 2800/2801 28020G28KT 1SM +TSRA BKN035CB
     FM280200 19010KT P6SM OVC100
     FM280800 19008KT 6SM BR OVC015
     FM281300 22012G20KT P6SM BKN250
     FM282000 26009G17KT P6SM BKN250 PROB30 2820/2822 P6SM -TSRA
      BKN050CB=

USA.gov is the U.S. government's official web portal to all federal, state and local government web resources and services.